Starlink 11468

operational
NORAD ID: 62221 Int'l Des: 2024-231 Owner: SPXS Country: US Constellation: starlink
LEOCIRCULAR

Über Starlink 11468

Beschreibung wird geladen...

Live-Position

3D-Globus wird geladen...

Nächste Überflüge

Höhenverlauf

Altitude vs Time

uPlot chart will show altitude changes over time

Zweizeiliger Elementsatz

1 62221U 24231D 25306.45385524 .00207414 00000-0 16681-2 0 9999
2 62221 53.1568 8.7892 0001165 94.5095 265.6056 15.69801062 53424
Epoch: 2. Nov. 2025 • Age: 32 hours

Aktueller Status

Höhe 363.5 km
Geschwindigkeit 7.70 km/s
Subsatellitenpunkt 52.40°N, 104.43°E
Startdatum 5. Dez. 2024
Alter 0.9 years
Typ internet

Technische Details

Klassifizierung Payload
Masse 960.00 kg
Trockenmasse 910.00 kg
Gesamtmasse 960.00 kg
Länge 0.30 m
Durchmesser 4.10 m
Spannweite 29.00 m
Form Box + pan
Hersteller SPXS
Bus-Typ Starlink V2MD
Phasenstatus In Orbit
Besitzer/Staat SPXS/US

Große Konstellationen

Loading constellations...